Regional Weather Roundup
Issued by NWS Goodland, KS

Home | Current Version | Previous Version | Graphics & Text | Print | Product List | Glossary On
Versions: 1 2 3 4 5 6 7 8 9 10 11 12 13 14 15 16 17 18 19 20 21 22 23 24 25 26 27 28 29 30 31 32 33 34 35 36 37 38 39 40 41 42 43 44 45 46 47 48 49 50
000
ASUS43 KGLD 302259
RWRGLD

GOODLAND FORECAST AREA HOURLY WEATHER ROUNDUP
NATIONAL WEATHER SERVICE GOODLAND KS
500 PM MDT THU JUL 30 2015

...OFFICIAL OBSERVATIONS...

CITY           SKY/WX    TMP DP  RH WIND       PRES   REMARKS
GOODLAND KS    SUNNY     88  56  33 S12       30.21F
HILL CITY KS   SUNNY     89  64  43 CALM      30.16F
IMPERIAL NEB   MOSUNNY   88  54  31 SE12      30.18F
MCCOOK NEB     SUNNY     91  58  32 SE7       30.16F
AKRON CO       PTSUNNY   71  56  58 E18G30    30.26S
BURLINGTON CO  SUNNY     86  56  35 S14G23    30.24F
LIMON CO       PTSUNNY   85  51  31 S15       30.29F
$$

...UNOFFICIAL OBSERVATIONS...

CITY           SKY/WX    TMP DP  RH WIND       PRES   REMARKS
$$


USA.gov is the U.S. government's official web portal to all federal, state and local government web resources and services.